Regional Weather Roundup
Issued by NWS

Home | Current Version | Previous Version | Text Only | Print | Product List | Glossary On
Versions: 1 2 3 4 5 6 7 8 9 10 11 12 13 14 15 16 17 18 19 20 21 22 23 24 25 26 27 28 29 30 31 32 33 34 35 36 37 38 39 40 41 42 43 44 45 46 47 48 49 50
103
ASUS44 KJAN 210910
RWRMS

MISSISSIPPI HOURLY WEATHER ROUNDUP
NATIONAL WEATHER SERVICE JACKSON MS
300 AM CST WED FEB 21 2018

NOTE: "FAIR: INDICATES FEW OR NO CLOUDS BELOW 12,000 FEET WITH NO
SIGNIFICANT WEATHER AND/OR OBSTRUCTIONS TO VISIBILITY.

MSZ001>002-007>008-010>013-018>021-025>028-034>036-211000-
NORTHWEST MISSISSIPPI

CITY           SKY/WX    TMP DP  RH WIND       PRES   REMARKS
BATESVILLE       N/A    N/A N/A N/A MISG        N/A
CLARKSDALE       N/A     68  68 100 S10       30.15S
CLEVELAND      PTSUNNY   68  68 100 S9        30.15R
GREENWOOD      FAIR      70  66  87 S13       30.17R
GREENVILLE     MOCLDY    67  63  87 S5        30.14R
OXFORD         FAIR      66  64  94 S9        30.18S
TUNICA           N/A     68  64  88 S13       30.14S
WINONA         CLOUDY    69  68  97 S7        30.19S
$$

MSZ003>006-009-014>017-022>024-029>033-037>039-211000-
NORTHEAST MISSISSIPPI

CITY           SKY/WX    TMP DP  RH WIND       PRES   REMARKS
ABERDEEN       CLOUDY    70  70 100 S10       30.23R
COLUMBUS AFB   MOCLDY    70  70 100 S8        30.22R
CORINTH        PTSUNNY   70  64  83 S14G21    30.18S
GOLDN TRIANGLE MOCLDY    68  66  93 S13       30.23R
STARKVILLE     CLOUDY    68  64  88 S8        30.23S
TUPELO         MOCLDY    68  64  87 SE10      30.20R
$$

MSZ040-058-211000-
CENTRAL MISSISSIPPI

CITY           SKY/WX    TMP DP  RH WIND       PRES   REMARKS
JACKSON INTL   FAIR      68  67  96 SE10      30.18S
JACKSON HAWKNS CLOUDY    69  68  96 SE8       30.18F
MADISON        CLOUDY    68  66  94 CALM      30.18F
MERIDIAN KEY   CLOUDY    71  68  90 S12       30.23F
MERIDIAN NAS   CLOUDY    71  68  90 SE6       30.24F
RAYMOND        FAIR      70  68  94 SE8       30.17S FOG
VICKSBURG VKS  SUNNY     72  68  88 S9        30.16S
$$

MSZ059>079-211000-
SOUTH MISSISSIPPI

CITY           SKY/WX    TMP DP  RH WIND       PRES   REMARKS
COLUMBIA       CLOUDY    72  70  94 SE8       30.25S
HATTIESBURG    MOCLDY    69  69 100 SE3       30.23S
LAUREL         CLOUDY    69  69 100 SE3       30.24R
MCCOMB         CLOUDY    72  68  87 S9        30.19F
NATCHEZ        CLOUDY    72  69  90 S13       30.16S
PINE BELT      FAIR      68  67  96 S3        30.24R
$$

MSZ080>082-211000-
COASTAL MISSISSIPPI

CITY           SKY/WX    TMP DP  RH WIND       PRES   REMARKS
BILOXI         CLOUDY    72  70  94 SE10      30.22S FOG
PASCAGOULA     CLOUDY    71  69  93 SE9       30.23S FOG
GULFPORT       FOG       71  71 100 SE10      30.21S VSB 1/2
$$

LAZ007>009-015>016-023>026-211000-
NORTHEAST LOUISIANA

CITY           SKY/WX    TMP DP  RH WIND       PRES   REMARKS
BASTROP        CLOUDY    70  68  95 CALM      30.13F
TALLULAH/VBURG FAIR      69  68  96 S8        30.15S
VIDALIA        FAIR      69  67  94 SE8       30.14F
$$




USA.gov is the U.S. government's official web portal to all federal, state and local government web resources and services.